TimeCST,TemperatureF,Dew PointF,Humidity,Sea Level PressureIn,VisibilityMPH,Wind Direction,Wind SpeedMPH,Gust SpeedMPH,PrecipitationIn,Events,Conditions,WindDirDegrees,DateUTC
12:51 AM,34.0,28.0,79,30.07,10.0,SW,3.5,-,N/A,,Partly Cloudy,230,2013-12-01 06:51:00
1:51 AM,34.0,28.0,79,30.07,10.0,Calm,Calm,-,N/A,,Partly Cloudy,0,2013-12-01 07:51:00
2:51 AM,33.1,28.0,82,30.07,10.0,Calm,Calm,-,N/A,,Partly Cloudy,0,2013-12-01 08:51:00
3:51 AM,30.9,27.0,85,30.07,9.0,West,3.5,-,N/A,,Scattered Clouds,260,2013-12-01 09:51:00
4:51 AM,32.0,28.0,85,30.08,8.0,Calm,Calm,-,N/A,,Mostly Cloudy,0,2013-12-01 10:51:00
5:51 AM,33.1,28.9,85,30.09,8.0,WNW,3.5,-,N/A,,Mostly Cloudy,290,2013-12-01 11:51:00
6:51 AM,34.0,28.9,82,30.10,8.0,NNW,8.1,-,N/A,,Overcast,330,2013-12-01 12:51:00
7:51 AM,35.1,30.0,82,30.13,7.0,WNW,6.9,-,N/A,,Overcast,300,2013-12-01 13:51:00
7:54 AM,35.6,30.2,81,30.10,7.0,NW,6.9,-,N/A,,Overcast,320,2013-12-01 13:54:00
8:44 AM,37.4,32.0,81,30.09,7.0,North,6.9,-,N/A,,Overcast,360,2013-12-01 14:44:00
8:51 AM,37.0,32.0,82,30.12,7.0,North,6.9,-,N/A,,Overcast,350,2013-12-01 14:51:00
9:43 AM,39.2,33.8,81,30.09,7.0,North,5.8,-,N/A,,Mostly Cloudy,10,2013-12-01 15:43:00
9:51 AM,39.9,34.0,79,30.12,7.0,Variable,5.8,-,N/A,,Mostly Cloudy,0,2013-12-01 15:51:00
10:51 AM,42.1,33.1,70,30.12,7.0,North,8.1,-,N/A,,Mostly Cloudy,360,2013-12-01 16:51:00
11:51 AM,43.0,33.1,68,30.10,8.0,Variable,4.6,-,N/A,,Mostly Cloudy,0,2013-12-01 17:51:00
12:51 PM,43.0,32.0,65,30.07,8.0,ENE,9.2,-,N/A,,Mostly Cloudy,60,2013-12-01 18:51:00
1:51 PM,42.1,32.0,67,30.08,10.0,NNW,5.8,-,N/A,,Overcast,330,2013-12-01 19:51:00
2:51 PM,39.9,32.0,73,30.07,10.0,NNE,8.1,-,N/A,,Overcast,20,2013-12-01 20:51:00
3:51 PM,39.0,30.9,73,30.07,10.0,NNE,9.2,-,N/A,,Mostly Cloudy,30,2013-12-01 21:51:00
4:51 PM,36.0,30.9,82,30.07,6.0,NE,6.9,-,N/A,,Haze,40,2013-12-01 22:51:00
5:51 PM,36.0,30.9,82,30.07,8.0,NNE,5.8,-,N/A,,Mostly Cloudy,20,2013-12-01 23:51:00
6:51 PM,36.0,30.0,79,30.06,10.0,North,4.6,-,N/A,,Mostly Cloudy,360,2013-12-02 00:51:00
7:51 PM,35.1,30.0,82,30.06,10.0,North,4.6,-,N/A,,Overcast,350,2013-12-02 01:51:00
8:51 PM,36.0,30.9,82,30.05,10.0,North,4.6,-,N/A,,Overcast,10,2013-12-02 02:51:00
9:51 PM,36.0,30.9,82,30.04,8.0,North,3.5,-,N/A,,Overcast,10,2013-12-02 03:51:00
10:51 PM,33.1,30.0,89,30.03,6.0,NNW,3.5,-,N/A,,Overcast,340,2013-12-02 04:51:00
11:51 PM,33.1,30.0,89,30.01,4.0,Calm,Calm,-,N/A,,Overcast,0,2013-12-02 05:51:00